(72490) = 1998 HG150 = 2001 DW46

Discovered at Socorro on 2001-02-19 by LINEAR.

Orbit

Orbit type: Main Belt

Note: WebGL enabled browser required.

epoch2023-09-13.0
epoch JD2460200.5
perihelion date2021-02-08.32112
perihelion JD2459253.82112
argument of perihelion (°)158.80136
ascending node (°)267.46660
inclination (°)3.23509
eccentricity0.1484441
perihelion distance (AU)1.9385887
Tisserand w.r.t. Jupiter3.6
ΔV w.r.t. Earth (km/sec)8.7
semimajor axis (AU)2.2765256
mean anomaly (°)271.64250
mean daily motion (°/day)0.28694260
aphelion distance (AU)2.614
period (years)3.43
P-vector [x]0.40188403
P-vector [y]0.83180387
P-vector [z]0.38287276
Q-vector [x]-0.91395337
Q-vector [y]0.39011810
Q-vector [z]0.11179047
absolute magnitude16.17
phase slope0.15
uncertainty0
referenceMPEC 2024-A48
observations used1266
oppositions18
arc length (days)11924
first opposition used1991
last opposition used2023
residual rms (arc-secs)0.67
perturbers coarse indicatorM-v
perturbers precise indicator003Ek
first observation date used1991-04-14.0
last observation date used2023-12-06.0
computer nameMPCLINUX
JD of orbit computation2456731.599435
perihelion JD uncertainty (days)5.5427E-05
argument of perihelion uncertainty (°)7.9952E-05
ascending node uncertainty (°)7.8305E-05
inclination uncertainty (°)3.4907E-06
eccentricity uncertainty 3.6830E-08
perihelion distance uncertainty (AU)8.7413E-08
Minimum Orbit Intersection Distances (in AU)
for orbit epoch: 2460200.5, reference: E2024-A48
Mercury1.62957
Venus1.21786
Earth0.95165
Mars0.39076
Jupiter2.66187
Saturn7.06404
Uranus16.0799
Neptune27.7614

Observations

1291 total observations over interval: 1991 04 14.17435 – 2023 12 06.225080
These data are available for download (format description).

Date (UT) J2000 RA J2000 Dec Magn Location Ref
1991 04 14.17435 12 31 13.79 -08 56 35.0 20.5 V 691 – Steward Observatory, Kitt Peak-Spacewatch MPS 78064
1991 04 14.19555 12 31 12.62 -08 56 27.3 21.0 V 691 – Steward Observatory, Kitt Peak-Spacewatch MPS 78064
1991 04 14.21356 12 31 11.64 -08 56 19.0 20.6 V 691 – Steward Observatory, Kitt Peak-Spacewatch MPS 78064
1998 04 19.31963 13 36 18.55 -14 59 54.2 19.4 V 691 – Steward Observatory, Kitt Peak-Spacewatch MPS 1447
1998 04 19.34091 13 36 17.26 -14 59 46.2 19.5 V 691 – Steward Observatory, Kitt Peak-Spacewatch MPS 1447
1998 04 19.36217 13 36 15.94 -14 59 37.5 19.4 V 691 – Steward Observatory, Kitt Peak-Spacewatch MPS 1447
1998 04 22.26550 13 33 25.04 -14 40 49.6 19.7   704 – Lincoln Laboratory ETS, New Mexico MPS 1447
1998 04 22.28428 13 33 23.81 -14 40 42.7 19.2   704 – Lincoln Laboratory ETS, New Mexico MPS 1447
1998 04 22.30313 13 33 22.59 -14 40 33.7 19.1   704 – Lincoln Laboratory ETS, New Mexico MPS 1447
2001 01 26.31545 10 28 31.04 +04 36 21.3 18.6   704 – Lincoln Laboratory ETS, New Mexico MPS 28052
2001 01 26.33033 10 28 30.35 +04 36 23.6 18.6   704 – Lincoln Laboratory ETS, New Mexico MPS 28052
2001 01 26.34524 10 28 29.67 +04 36 24.8 18.5   704 – Lincoln Laboratory ETS, New Mexico MPS 28052
2001 01 26.36013 10 28 29.03 +04 36 26.3 18.7   704 – Lincoln Laboratory ETS, New Mexico MPS 28052
2001 01 26.37503 10 28 28.40 +04 36 27.5 18.2   704 – Lincoln Laboratory ETS, New Mexico MPS 28052
2001 02 19.21807 10 06 13.72 +06 04 03.4 18.3 R 699 – Lowell Observatory-LONEOS MPS 27063
2001 02 19.25707 10 06 11.19 +06 04 15.2   699 – Lowell Observatory-LONEOS MPS 27063
2001 02 19.29627 10 06 08.64 +06 04 27.6   699 – Lowell Observatory-LONEOS MPS 27063
2001 02 19.33557 10 06 06.14 +06 04 38.7   699 – Lowell Observatory-LONEOS MPS 27063
2001 02 19.33579 10 06 06.07 +06 04 38.8 18.2   704 – Lincoln Laboratory ETS, New Mexico MPS 27063
2001 02 19.33593 10 06 06.07 +06 04 38.6 18.6   704 – Lincoln Laboratory ETS, New Mexico MPS 27063
2001 02 19.35008 10 06 05.14 +06 04 42.9 18.8   704 – Lincoln Laboratory ETS, New Mexico MPS 27063
2001 02 19.35022 10 06 05.14 +06 04 43.0 18.8   704 – Lincoln Laboratory ETS, New Mexico MPS 27063
2001 02 19.36551 10 06 04.18 +06 04 47.3 19.2   704 – Lincoln Laboratory ETS, New Mexico MPS 27063
2001 02 19.36607 10 06 04.13 +06 04 48.8 19.5   704 – Lincoln Laboratory ETS, New Mexico MPS 27063
2001 02 19.38018 10 06 03.18 +06 04 51.4 19.4   704 – Lincoln Laboratory ETS, New Mexico MPS 27063
2001 02 19.38032 10 06 03.22 +06 04 51.5 19.3   704 – Lincoln Laboratory ETS, New Mexico MPS 27063
2001 02 20.35059 10 05 02.91 +06 09 46.9 18.5   704 – Lincoln Laboratory ETS, New Mexico MPS 27063
2001 02 20.36487 10 05 01.98 +06 09 50.9 18.5   704 – Lincoln Laboratory ETS, New Mexico MPS 27063
2001 02 20.37909 10 05 01.05 +06 09 54.9 18.5   704 – Lincoln Laboratory ETS, New Mexico MPS 27063
2001 02 20.39347 10 05 00.13 +06 09 59.5 18.5   704 – Lincoln Laboratory ETS, New Mexico MPS 27063
2001 02 20.40771 10 04 59.24 +06 10 03.5 18.6   704 – Lincoln Laboratory ETS, New Mexico MPS 27063
2001 03 14.18362 09 45 57.40 +07 57 05.8 18.9 R 699 – Lowell Observatory-LONEOS MPS 28052
2001 03 14.21652 09 45 56.04 +07 57 14.6   699 – Lowell Observatory-LONEOS MPS 28052
2001 03 14.24943 09 45 54.72 +07 57 22.0   699 – Lowell Observatory-LONEOS MPS 28052
2001 03 14.28218 09 45 53.47 +07 57 30.8   699 – Lowell Observatory-LONEOS MPS 28052
2001 03 18.19194 09 43 40.67 +08 13 05.8 18.8   704 – Lincoln Laboratory ETS, New Mexico MPS 28052
2001 03 18.23050 09 43 39.39 +08 13 14.8 19.0   704 – Lincoln Laboratory ETS, New Mexico MPS 28052
2001 03 18.24418 09 43 38.93 +08 13 18.2 18.7   704 – Lincoln Laboratory ETS, New Mexico MPS 28052
2001 03 29.14247 09 40 00.38 +08 46 31.2 19.3 R 699 – Lowell Observatory-LONEOS MPS 28052
2001 03 29.16898 09 40 00.12 +08 46 34.2   699 – Lowell Observatory-LONEOS MPS 28052
2001 03 29.19553 09 39 59.74 +08 46 39.5   699 – Lowell Observatory-LONEOS MPS 28052
2001 03 29.22224 09 39 59.43 +08 46 41.0   699 – Lowell Observatory-LONEOS MPS 28053
2003 09 27.36699 04 20 05.49 +25 06 22.2 19.7   704 – Lincoln Laboratory ETS, New Mexico MPS 86159
2003 09 27.38000 04 20 06.11 +25 06 23.2 19.7   704 – Lincoln Laboratory ETS, New Mexico MPS 86159
2003 09 27.39345 04 20 06.71 +25 06 25.2 19.1   704 – Lincoln Laboratory ETS, New Mexico MPS 86159
2003 09 27.40631 04 20 07.27 +25 06 26.5 19.5   704 – Lincoln Laboratory ETS, New Mexico MPS 86159
2003 09 27.42043 04 20 07.88 +25 06 28.8 19.9   704 – Lincoln Laboratory ETS, New Mexico MPS 86159
2003 10 05.37592 04 25 14.94 +25 19 24.9 19.6   704 – Lincoln Laboratory ETS, New Mexico MPS 86900
2003 10 05.39064 04 25 15.27 +25 19 26.1 19.9   704 – Lincoln Laboratory ETS, New Mexico MPS 86900
2003 10 05.40617 04 25 15.74 +25 19 28.3 20.2   704 – Lincoln Laboratory ETS, New Mexico MPS 86900
2003 10 05.42305 04 25 16.15 +25 19 29.2 20.0   704 – Lincoln Laboratory ETS, New Mexico MPS 86900
2003 10 05.43733 04 25 16.58 +25 19 29.3 20.1   704 – Lincoln Laboratory ETS, New Mexico MPS 86900
2003 10 24.32561 04 27 59.40 +25 21 19.0 18.7   704 – Lincoln Laboratory ETS, New Mexico MPS 87897
2003 10 24.33727 04 27 59.14 +25 21 17.7 20.5   704 – Lincoln Laboratory ETS, New Mexico MPS 87897
2003 10 24.34913 04 27 58.90 +25 21 16.5 20.1   704 – Lincoln Laboratory ETS, New Mexico MPS 87897
2003 10 24.36078 04 27 58.70 +25 21 15.3 20.3   704 – Lincoln Laboratory ETS, New Mexico MPS 87897
2003 10 24.37292 04 27 58.49 +25 21 15.5 19.9   704 – Lincoln Laboratory ETS, New Mexico MPS 87897
2003 10 29.27070 04 26 19.86 +25 14 10.1 18.6   704 – Lincoln Laboratory ETS, New Mexico MPS 89355
2003 10 29.28266 04 26 19.54 +25 14 09.5 19.7   704 – Lincoln Laboratory ETS, New Mexico MPS 89355
2003 10 29.29470 04 26 19.06 +25 14 07.5 19.5   704 – Lincoln Laboratory ETS, New Mexico MPS 89355
2003 10 29.31984 04 26 18.46 +25 14 04.1 20.2   704 – Lincoln Laboratory ETS, New Mexico MPS 89355
2003 11 02.32032 04 24 15.75 +25 05 42.9 18.6   704 – Lincoln Laboratory ETS, New Mexico MPS 89355
2003 11 02.33254 04 24 15.28 +25 05 41.2 19.0   704 – Lincoln Laboratory ETS, New Mexico MPS 89355
2003 11 02.34517 04 24 14.83 +25 05 39.4 18.8   704 – Lincoln Laboratory ETS, New Mexico MPS 89355
2003 11 02.35801 04 24 14.36 +25 05 36.8 19.7   704 – Lincoln Laboratory ETS, New Mexico MPS 89355
2003 11 02.37038 04 24 13.93 +25 05 34.5 19.5   704 – Lincoln Laboratory ETS, New Mexico MPS 89355
2003 11 18.48185 04 10 54.89 +24 08 18.1 17.5   644 – Palomar Mountain/NEAT MPS 91608
2003 11 18.49359 04 10 54.15 +24 08 14.7 17.7   644 – Palomar Mountain/NEAT MPS 91608
2003 11 18.50818 04 10 53.25 +24 08 10.5 17.7   644 – Palomar Mountain/NEAT MPS 91608
2003 11 20.27450 04 09 06.00 +23 59 47.5 17.6   704 – Lincoln Laboratory ETS, New Mexico MPS 91608
2003 11 20.28703 04 09 05.18 +23 59 43.6 17.9   704 – Lincoln Laboratory ETS, New Mexico MPS 91608
2003 11 20.29957 04 09 04.37 +23 59 40.0 17.5   704 – Lincoln Laboratory ETS, New Mexico MPS 91608
2003 11 20.31204 04 09 03.55 +23 59 36.7 17.4   704 – Lincoln Laboratory ETS, New Mexico MPS 91608
2003 11 20.32492 04 09 02.72 +23 59 32.8 17.7   704 – Lincoln Laboratory ETS, New Mexico MPS 91608
2003 11 24.15111 04 05 04.15 +23 40 09.4 17.3 R 699 – Lowell Observatory-LONEOS MPS 92536
2003 11 24.16864 04 05 02.95 +23 40 03.9   699 – Lowell Observatory-LONEOS MPS 92536
2003 11 24.18614 04 05 01.82 +23 39 58.4   699 – Lowell Observatory-LONEOS MPS 92536
2003 11 24.20374 04 05 00.69 +23 39 54.1   699 – Lowell Observatory-LONEOS MPS 92536
2003 11 24.25366 04 04 57.33 +23 39 38.3 17.7   704 – Lincoln Laboratory ETS, New Mexico MPS 92536
2003 11 24.26639 04 04 56.64 +23 39 35.4 19.0   704 – Lincoln Laboratory ETS, New Mexico MPS 92536
2003 11 24.27894 04 04 55.54 +23 39 30.3 18.8   704 – Lincoln Laboratory ETS, New Mexico MPS 92536
2003 11 24.29155 04 04 54.81 +23 39 26.7 17.9   704 – Lincoln Laboratory ETS, New Mexico MPS 92536
2003 11 24.30445 04 04 53.96 +23 39 22.1 18.0   704 – Lincoln Laboratory ETS, New Mexico MPS 92536
2003 11 26.24353 04 02 51.60 +23 29 01.9 17.7   704 – Lincoln Laboratory ETS, New Mexico MPS 92536
